FW0277 Weather Reports


time (UTC)temp
C
wind
direction
speed
KPH
gust
KPH
rain 1hr
cm
rain 24hr
cm
rain mn
cm
humidity
%
barometer
mb
20260505080038 13 43 0.0 1.6 0.00 0.00 0.00 75 1014.0
20260505074535 13 41 0.0 3.2 0.00 0.00 0.00 74 1014.1
20260505073032 13 99 0.0 1.6 0.00 0.00 0.00 74 1014.0
20260505071531 13 81 0.0 1.6 0.00 0.00 0.00 74 1014.1
20260505070031 13 101 0.0 1.6 0.00 0.00 0.00 74 1014.1
20260505064534 13 101 0.0 1.6 0.00 0.00 0.00 74 1014.0
20260505063028 13 330 0.0 4.8 0.00 0.00 0.00 74 1014.0
20260505061527 13 298 0.0 1.6 0.00 0.00 0.00 72 1014.0
20260505060023 14 360 0.0 1.6 0.00 0.00 0.00 72 1013.9
20260505054541 14 113 0.0 1.6 0.00 0.00 0.00 71 1013.9
20260505053023 14 82 0.0 1.6 0.00 0.00 0.00 70 1013.9
20260505051519 15 78 0.0 1.6 0.00 0.00 0.00 70 1013.9
20260505041514 15 61 0.0 1.6 0.00 0.00 0.00 70 1013.7
20260505040013 15 69 0.0 1.6 0.00 0.00 0.00 69 1013.8
20260505034517 15 68 0.0 1.6 0.00 0.00 0.00 69 1013.7
20260505033011 15 101 0.0 1.6 0.00 0.00 0.00 69 1013.9
20260505031511 16 102 0.0 1.6 0.00 0.00 0.00 67 1014.0
20260505030032 16 105 0.0 1.6 0.00 0.00 0.00 67 1014.0
20260505024515 16 120 0.0 1.6 0.00 0.00 0.00 66 1014.2
20260505023009 16 60 0.0 1.6 0.00 0.00 0.00 64 1014.2
20260505021509 16 70 0.0 1.6 0.00 0.00 0.00 64 1014.2
20260505020008 16 357 0.0 0.0 0.00 0.00 0.00 64 1014.1
20260505014515 17 357 0.0 1.6 0.00 0.00 0.00 62 1013.9
20260505013016 17 70 0.0 0.0 0.00 0.00 0.00 60 1013.8
20260505011508 18 23 0.0 3.2 0.00 0.00 0.00 59 1013.8
20260505010007 18 105 0.0 1.6 0.00 0.00 0.00 59 1013.4
20260505004518 19 342 0.0 3.2 0.00 0.00 0.00 58 1013.4
20260505003006 19 288 0.0 1.6 0.00 0.00 0.00 56 1013.2
20260505001506 20 127 0.0 0.0 0.00 0.00 0.00 53 1013.2
20260505000007 21 272 0.0 1.6 0.00 0.00 0.00 51 1013.1
20260504234506 21 271 0.0 1.6 0.00 0.00 0.00 53 1013.1
20260504233004 21 251 0.0 4.8 0.00 0.00 0.00 49 1013.0
20260504231503 22 285 0.0 1.6 0.00 0.00 0.00 50 1013.0
20260504230003 22 164 0.0 3.2 0.00 0.00 0.00 46 1013.0
20260504224500 22 321 0.0 3.2 0.00 0.00 0.00 48 1013.2
20260504223001 23 308 3.2 11.3 0.00 0.00 0.00 48 1013.3
20260504221646 24 312 1.6 14.5 0.00 0.00 0.00 43 1013.2
20260504220059 24 233 3.2 12.9 0.00 0.00 0.00 43 1013.2
20260504214600 24 253 8.0 17.7 0.00 0.00 0.00 46 1013.1
20260504213101 24 223 4.8 17.7 0.00 0.00 0.00 47 1013.2
20260504211555 25 309 3.2 16.1 0.00 0.00 0.00 48 1013.5
20260504210054 24 278 8.0 16.1 0.00 0.00 0.00 48 1013.5
20260504204552 25 286 1.6 16.1 0.00 0.00 0.00 49 1013.8
20260504203051 24 25 3.2 12.9 0.00 0.00 0.00 50 1013.8
20260504201550 24 277 4.8 17.7 0.00 0.00 0.00 50 1014.0
20260504200047 24 70 3.2 9.7 0.00 0.00 0.00 50 1014.1
20260504194551 23 326 3.2 14.5 0.00 0.00 0.00 51 1014.2
20260504193047 23 278 6.4 16.1 0.00 0.00 0.00 51 1014.7
20260504191605 23 314 1.6 17.7 0.00 0.00 0.00 54 1015.0
20260504190040 24 116 3.2 12.9 0.00 0.00 0.00 51 1015.3
20260504184543 23 288 1.6 11.3 0.00 0.00 0.00 57 1015.5
20260504183034 22 342 3.2 17.7 0.00 0.00 0.00 57 1015.8
20260504181533 23 309 1.6 11.3 0.00 0.00 0.00 51 1015.9
20260504180033 22 251 0.0 6.4 0.00 0.00 0.00 55 1016.1
20260504174526 22 134 3.2 14.5 0.00 0.00 0.00 53 1016.3
20260504173024 22 273 4.8 14.5 0.00 0.00 0.00 51 1016.6
20260504171522 22 161 3.2 9.7 0.00 0.00 0.00 53 1016.7
20260504081601 7 41 0.0 1.6 0.00 0.00 0.00 79 1018.6